TDRS 5

Last updated on Tue Sep 22 2026 00:03:06 GMT+0000 (Coordinated Universal Time)

1 21639U 91054B 26264.53090696 .00000089 00000+0 00000+0 0 9993 2 21639 14.0599 353.0517 0009113 247.0670 144.0016 1.00265940128683
UTC large
Height (km)
Speed (km/s)
/
Latitude / Longitude
Inclination (degrees)
Orbital Period (minutes)
Azimuth
Elevation
Range (km)
Doppler Factor

Next 0 passes for location: London (51.5072 / 0.1276)

No passes found over London.
TDRS 5